[[{"header":{"parameterUnit":"m.s-1","parameterCategory":1,"la1":30.2991,"la2":30.254,"lo1":-89.0895,"lo2":-89.0444,"dy":0.0017,"dx":0.0017,"nx":28,"ny":28,"refTime":"2025-08-12T21:00:00:Z","depth":0,"parameterNumber":2,"parameterNumberName":"U-component_of_WINDS"},"data":[0,0,0,0,0,0,0,0,0,0,0,0,0,0,0,0,0,0,0,0,0,0,0,0,0,0,0,0,0,0,0,0,0,0,0,0,0,0,0,0,0,0,0,0,0,0,0,0,0,0,0,0,0,0,0,0,0,0,-4.3174,-4.3171,0,-4.2915,-4.2912,-4.2909,-4.2737,-4.2736,-4.2735,-4.2734,-4.2455,-4.2449,-4.2443,0,0,0,0,0,0,0,0,0,0,0,0,0,-4.3504,-4.3499,-4.3174,-4.3171,-4.3168,-4.2916,-4.2912,-4.2908,-4.2737,-4.2736,-4.2735,-4.2733,-4.2457,-4.245,-4.2442,0,0,0,0,0,0,0,0,0,0,0,0,0,-4.3315,-4.3497,-4.3175,-4.3052,-4.3039,-4.2916,-4.2912,-4.2907,-4.2738,-4.2736,-4.2734,-4.2733,-4.246,-4.245,-4.2441,-4.2416,0,0,-4.2412,-4.2408,0,0,0,0,0,0,0,0,-4.3325,-4.3302,-4.3073,-4.306,-4.3045,-4.2857,-4.2926,-4.2742,-4.2738,-4.2852,-4.2734,-4.2732,-4.2589,-4.2569,-4.2524,-4.2403,-4.2391,-4.2411,-4.2405,-4.2401,-4.2398,0,0,0,0,0,0,0,-4.3339,-4.3313,-4.3071,-4.307,-4.3053,-4.3005,-4.2976,-4.289,-4.2732,-4.2842,-4.2829,-4.2801,-4.2581,-4.2533,-4.2516,-4.2387,-4.2411,-4.2403,-4.2397,-4.2393,-4.2225,-4.2226,0,0,0,0,0,0,-4.3373,-4.3325,-4.3079,-4.3063,-4.3184,-4.3,-4.2968,-4.2919,-4.2733,-4.2704,-4.2803,-4.2794,-4.2551,-4.2527,-4.2505,-4.2459,-4.2401,-4.2392,-4.2387,-4.2223,-4.2225,-4.2226,0,0,0,0,0,0,-4.3381,-4.3353,-4.309,-4.319,-4.3153,-4.2997,-4.2942,-4.2915,-4.2867,-4.2704,-4.2673,-4.2784,-4.2548,-4.2519,-4.2439,-4.2447,-4.2388,-4.2379,-4.2222,-4.2224,-4.2225,-4.2369,0,0,0,0,0,0,-4.3391,-4.3357,-4.335,-4.3192,-4.3149,-4.3033,-4.2943,-4.2911,-4.2852,-4.2839,-4.2678,-4.265,-4.2545,-4.2454,-4.2429,-4.2433,-4.2372,-4.222,-4.2223,-4.2225,-4.2363,-4.2376,-4.2387,0,0,0,0,0,-4.3404,-4.3399,-4.3351,-4.3322,-4.3137,-4.3034,-4.3009,-4.2892,-4.2854,-4.2842,-4.2737,-4.2655,-4.2451,-4.2447,-4.2418,-4.2419,-4.2219,-4.2222,-4.2225,-4.2358,-4.2373,-4.2387,0,0,0,0,0,0,-4.3558,-4.3376,-4.332,-4.3265,-4.3167,-4.3005,-4.2987,-4.2913,-4.282,-4.281,-4.2664,-4.2629,-4.2563,-4.2482,-4.2482,-4.2381,-4.2325,-4.2322,-4.2436,-4.2449,-4.2461,-4.248,-4.2364,0,0,0,0,0,-4.3587,-4.3523,-4.3365,-4.3331,-4.3285,-4.3146,-4.3096,-4.3015,-4.2905,-4.2861,-4.275,-4.2642,-4.2553,-4.2497,-4.2407,-4.2352,-4.231,-4.2337,-4.2349,-4.236,-4.2357,-4.2316,-4.2324,-4.2235,-4.2235,-4.2235,0,0,-4.3643,-4.3536,-4.3503,-4.336,-4.3274,-4.3205,-4.3111,-4.3044,-4.299,-4.2849,-4.2767,-4.2682,-4.2551,-4.2482,-4.2446,-4.2413,-4.2373,-4.2363,-4.2373,-4.2364,-4.232,-4.2328,-4.2336,-4.2237,-4.2237,-4.2237,0,0,-4.371,-4.3626,-4.3586,-4.3502,-4.3374,-4.3281,-4.3272,-4.3121,-4.306,-4.2976,-4.2867,-4.2798,-4.265,-4.256,-4.2495,-4.2525,-4.2444,-4.2499,-4.256,-4.2522,-4.2529,-4.2534,-4.254,-4.2544,-4.2499,-4.2499,-4.2499,0,-4.3795,-4.3693,-4.3574,-4.3512,-4.3449,-4.3323,-4.3278,-4.32,-4.3048,-4.3005,-4.2972,-4.278,-4.2684,-4.2589,-4.2597,-4.255,-4.2529,-4.2516,-4.2539,-4.2542,-4.2545,-4.2549,-4.2552,-4.2506,-4.2505,-4.2505,-4.2504,0,-4.38,-4.3731,-4.3713,-4.3573,-4.3508,-4.3455,-4.3323,-4.3271,-4.3194,-4.3103,-4.3015,-4.2895,-4.2776,-4.2748,-4.2672,-4.2641,-4.2624,-4.2567,-4.2506,-4.2563,-4.2564,-4.2565,-4.2517,-4.2514,-4.2512,-4.251,0,0,-4.3957,-4.3751,-4.3746,-4.3679,-4.3528,-4.3469,-4.3407,-4.3295,-4.325,-4.3149,-4.3089,-4.2966,-4.2911,-4.2837,-4.2749,-4.2716,-4.2741,-4.2661,-4.2655,-4.2676,-4.2692,-4.2734,-4.2738,-4.2688,-4.2687,-4.2687,-4.2702,0,-4.3997,-4.3886,-4.3776,-4.3701,-4.3632,-4.3509,-4.3455,-4.3353,-4.3265,-4.3189,-4.3089,-4.3002,-4.2939,-4.2893,-4.2855,-4.2747,-4.2741,-4.2744,-4.2624,-4.2621,-4.2657,-4.2739,-4.2783,-4.2803,-4.2702,-4.2702,-4.2702,0,-4.403,-4.3938,-4.3858,-4.371,-4.3676,-4.363,-4.3515,-4.3446,-4.3326,-4.3263,-4.3181,-4.3088,-4.301,-4.2962,-4.2849,-4.2853,-4.2797,-4.2736,-4.2734,-4.2714,-4.2663,-4.2717,-4.2807,-4.2808,-4.2702,-4.2702,-4.2702,0,-4.4147,-4.4002,-4.3933,-4.388,-4.3708,-4.3677,-4.3602,-4.3481,-4.3419,-4.3317,-4.3274,-4.3163,-4.3101,-4.3015,-4.2892,-4.2869,-4.279,-4.2732,-4.2731,-4.2734,-4.2717,-4.2719,-4.2794,-4.2689,-4.2689,-4.2689,-4.2689,0,-4.4202,-4.4156,-4.3983,-4.3941,-4.3884,-4.3755,-4.3701,-4.3614,-4.3507,-4.3441,-4.3328,-4.3267,-4.3111,-4.3029,-4.2932,-4.285,-4.2824,-4.2767,-4.2741,-4.2775,-4.2782,-4.2733,-4.2727,-4.2689,-4.2689,-4.2689,-4.2689,0,-4.4321,-4.4204,-4.4121,-4.3965,-4.3924,-4.3889,-4.3751,-4.3702,-4.3608,-4.3526,-4.3499,-4.3349,-4.3247,-4.3117,-4.2973,-4.2907,-4.2834,-4.2797,-4.2877,-4.2861,-4.2865,-4.2865,-4.2908,-4.2904,-4.2808,-4.2809,-4.281,0,-4.4362,-4.4324,-4.4164,-4.4114,-4.4045,-4.3965,-4.3902,-4.3772,-4.3709,-4.3568,-4.3534,-4.3425,-4.333,-4.3172,-4.3046,-4.2934,-4.289,-4.2913,-4.2872,-4.2905,-4.2884,-4.2886,-4.2879,-4.2922,-4.2924,-4.2925,-4.2926,0,-4.4445,-4.4389,-4.4305,-4.4199,-4.4128,-4.4037,-4.3941,-4.3905,-4.3753,-4.3688,-4.3585,-4.3512,-4.3365,-4.3255,-4.3127,-4.3042,-4.2957,-4.2941,-4.2933,-4.2966,-4.3012,-4.2982,-4.29,-4.2939,-4.2938,-4.2937,-4.2936,-4.2936,-4.4522,-4.4482,-4.4363,-4.4271,-4.4185,-4.4098,-4.4043,-4.3943,-4.3856,-4.373,-4.3657,-4.3555,-4.3429,-4.3248,-4.3168,-4.3081,-4.3049,-4.304,-4.3037,-4.3035,-4.3044,-4.303,-4.3057,-4.3057,-4.3056,-4.3056,-4.3055,0,-4.4596,-4.4513,-4.4431,-4.4301,-4.4227,-4.4159,-4.4048,-4.3989,-4.3902,-4.3795,-4.3705,-4.3583,-4.3475,-4.3341,-4.3223,-4.3179,-4.3136,-4.3151,-4.3151,-4.3132,-4.3082,-4.3098,-4.3188,-4.3188,-4.3188,-4.3188,-4.3188,-4.3188,-4.4625,-4.4551,-4.4481,-4.436,-4.4276,-4.4179,-4.412,-4.4036,-4.3949,-4.382,-4.3732,-4.3647,-4.3526,-4.3398,-4.3294,-4.3256,-4.3215,-4.3242,-4.3193,-4.3148,-4.3136,-4.3125,-4.3139,-4.3236,-4.3236,-4.3248,-4.3249,-4.3249]},{"header":{"parameterUnit":"m.s-1","parameterCategory":1,"la1":30.2991,"la2":30.254,"lo1":-89.0895,"lo2":-89.0444,"dy":0.0017,"dx":0.0017,"nx":28,"ny":28,"refTime":"2025-08-12T21:00:00:Z","depth":0,"parameterNumber":3,"parameterNumberName":"V-component_of_WINDS"},"data":[0,0,0,0,0,0,0,0,0,0,0,0,0,0,0,0,0,0,0,0,0,0,0,0,0,0,0,0,0,0,0,0,0,0,0,0,0,0,0,0,0,0,0,0,0,0,0,0,0,0,0,0,0,0,0,0,0,0,2.9005,2.9007,0,2.9147,2.9149,2.9151,2.9175,2.9174,2.9173,2.9172,2.9308,2.9313,2.9318,0,0,0,0,0,0,0,0,0,0,0,0,0,2.8748,2.8752,2.9005,2.9007,2.9009,2.9147,2.9149,2.9151,2.9176,2.9174,2.9173,2.9172,2.9307,2.9312,2.9318,0,0,0,0,0,0,0,0,0,0,0,0,0,2.8871,2.8754,2.9005,2.9038,2.9042,2.9147,2.9149,2.9152,2.9176,2.9174,2.9172,2.9171,2.9305,2.9312,2.9319,2.9397,0,0,2.934,2.9343,0,0,0,0,0,0,0,0,2.8864,2.8881,2.9031,2.9036,2.9041,2.9142,2.9108,2.9234,2.9176,2.9125,2.9172,2.917,2.9254,2.9265,2.9295,2.9404,2.941,2.9341,2.9345,2.9348,2.935,0,0,0,0,0,0,0,2.8856,2.8875,2.9061,2.9033,2.9039,2.9043,2.9059,2.9132,2.9197,2.9129,2.9131,2.9148,2.9256,2.9288,2.9299,2.9412,2.9341,2.9347,2.9351,2.9354,2.9594,2.9597,0,0,0,0,0,0,2.8843,2.8868,2.9057,2.9065,2.8947,2.9049,2.9067,2.9111,2.9196,2.9208,2.915,2.9149,2.9277,2.929,2.9303,2.9404,2.9348,2.9355,2.9359,2.9592,2.9595,2.9597,0,0,0,0,0,0,2.8837,2.8859,2.9051,2.8967,2.8992,2.9056,2.9105,2.9115,2.9147,2.9212,2.9223,2.9172,2.9276,2.9293,2.9375,2.9409,2.9358,2.9364,2.959,2.9593,2.9596,2.9603,0,0,0,0,0,0,2.8829,2.8857,2.8889,2.8968,2.8997,2.9122,2.9107,2.9119,2.9161,2.9161,2.9235,2.9246,2.9276,2.9365,2.9382,2.9417,2.937,2.9587,2.9591,2.9595,2.96,2.9606,2.9611,0,0,0,0,0,2.882,2.8882,2.889,2.8913,2.9038,2.9124,2.914,2.9177,2.9163,2.9195,2.9237,2.9243,2.9402,2.9373,2.9393,2.9431,2.9585,2.959,2.9595,2.9598,2.9605,2.9611,0,0,0,0,0,0,2.8801,2.8893,2.8903,2.8993,2.9052,2.9128,2.917,2.9183,2.9243,2.9241,2.928,2.9297,2.9377,2.9411,2.9377,2.9513,2.9492,2.9501,2.9488,2.9495,2.95,2.9491,2.9376,0,0,0,0,0,2.8809,2.8874,2.8949,2.9021,2.905,2.9105,2.9144,2.9168,2.9228,2.9251,2.9299,2.9355,2.9418,2.9458,2.9519,2.9605,2.9622,2.9641,2.9646,2.9651,2.9658,2.9709,2.9719,2.9613,2.9613,2.9613,0,0,2.8822,2.8881,2.8918,2.9019,2.9067,2.9132,2.9125,2.9193,2.9241,2.926,2.9343,2.9379,2.9444,2.953,2.9569,2.9561,2.9691,2.9657,2.966,2.9665,2.9715,2.9725,2.9734,2.9616,2.9616,2.9615,0,0,2.8882,2.8932,2.8999,2.9049,2.9123,2.9159,2.9175,2.9252,2.9278,2.9362,2.9379,2.9435,2.9541,2.9588,2.9626,2.9706,2.9715,2.9724,2.9754,2.9802,2.9811,2.9818,2.9849,2.9859,2.9731,2.9731,2.9731,0,2.8889,2.899,2.9031,2.9101,2.9145,2.9169,2.9238,2.9282,2.937,2.9399,2.9389,2.9527,2.9571,2.9669,2.969,2.9718,2.9738,2.9717,2.9807,2.9815,2.9822,2.9852,2.9863,2.9732,2.9732,2.9732,2.9732,0,2.8996,2.9066,2.9111,2.9202,2.9251,2.9318,2.9369,2.9413,2.9432,2.947,2.9555,2.961,2.9685,2.9709,2.9727,2.981,2.9803,2.9799,2.978,2.9833,2.9862,2.9873,2.9734,2.9733,2.9733,2.9733,0,0,2.9047,2.9162,2.9178,2.9221,2.9306,2.9359,2.9428,2.9505,2.9543,2.9603,2.9662,2.9753,2.9752,2.9794,2.9818,2.986,2.9923,2.9852,2.9854,2.9865,3.0021,3.0025,3.0037,2.9929,2.9931,2.9933,3.0016,0,2.9118,2.9247,2.9287,2.9393,2.9459,2.9484,2.9545,2.9602,2.9639,2.9698,2.9737,2.9803,2.9794,2.9821,2.9864,2.9907,2.9955,2.9901,2.9984,2.9986,2.9969,3.0052,3.0056,3.0131,3.0027,3.0029,3.0031,0,2.9218,2.9286,2.94,2.948,2.9509,2.9563,2.9638,2.9695,2.976,2.9784,2.9834,2.9855,2.9926,2.9903,3.0002,2.9964,3.0,3.0026,3.003,3.004,3.0013,3.0066,3.0156,3.0168,3.0048,3.0047,3.0045,0,2.9247,2.9365,2.9451,2.9486,2.958,2.9618,2.9658,2.9723,2.9767,2.9831,2.9861,2.993,2.9969,3.0022,3.006,3.0039,3.0157,3.0136,3.0179,3.0178,3.0203,3.0201,3.0302,3.0223,3.0223,3.0223,3.0222,0,2.9323,2.9392,2.9466,2.9518,2.9596,2.9641,2.9717,2.9758,2.9816,2.9875,2.9899,2.9953,3.0001,3.0061,3.0091,3.017,3.0186,3.0207,3.0214,3.0206,3.0204,3.0231,3.0228,3.0226,3.0225,3.0225,3.0224,0,2.9368,2.942,2.9515,2.9598,2.9621,2.9675,2.9746,2.9797,2.9835,2.991,2.993,2.999,3.0063,3.0107,3.0197,3.0217,3.0305,3.0309,3.0285,3.0289,3.033,3.0326,3.0453,3.0473,3.0379,3.038,3.038,0,2.9415,2.947,2.9561,2.9605,2.9647,2.9716,2.9764,2.9809,2.9857,2.9938,2.9979,3.0054,3.0117,3.0232,3.0281,3.0351,3.0358,3.0398,3.0369,3.036,3.0362,3.0359,3.0365,3.0403,3.0404,3.0405,3.0405,0,2.9492,2.9516,2.9585,2.9664,2.9721,2.9784,2.9846,2.988,2.9936,2.9988,3.0065,3.0114,3.021,3.0284,3.0359,3.0398,3.0411,3.0414,3.0428,3.0421,3.0406,3.0417,3.0301,3.0411,3.0411,3.041,3.041,3.041,2.9542,2.9593,2.9667,2.9743,2.9796,2.9855,2.9909,2.9956,3.0023,3.0107,3.0129,3.021,3.0275,3.0378,3.0419,3.0481,3.0475,3.0494,3.05,3.0504,3.0507,3.0395,3.0494,3.0494,3.0494,3.0494,3.0494,0,2.9623,2.9673,2.9743,2.9833,2.9893,2.9904,2.9974,3.0023,3.0096,3.0157,3.0221,3.031,3.0383,3.044,3.0514,3.0554,3.0562,3.0572,3.057,3.0579,3.0507,3.0489,3.0564,3.0564,3.0564,3.0564,3.0564,3.0564,2.9672,2.9762,2.9794,2.991,2.9958,3.0041,3.0081,3.0135,3.0185,3.0286,3.0348,3.0386,3.0446,3.0526,3.0593,3.0607,3.0634,3.0644,3.0659,3.0591,3.0584,3.0577,3.056,3.0649,3.0649,3.0727,3.0727,3.0728]}]]